Total_Precipitation_Accumulation
0.04 0.11 0.05 0.03 0.03 0.14 0.18 0.11 0.06 0.07 0.07 0.04 0.05 0.19 0.25 0.07 0.01 0.24 0.43 0.34 0.37 0.58 0.70 0.58 0.32 0.41 0.58 0.44 0.36 0.07 0.00 0.00 0.00
0.03 0.12 0.11 0.05 0.03 0.04 0.17 0.24 0.06 0.07 0.12 0.08 0.09 0.16 0.12 0.03 0.15 0.23 0.24 0.45 0.61 0.56 0.50 0.36 0.25 0.54 0.75 0.33 0.24 0.10 0.00 0.00 0.00
0.01 0.06 0.16 0.13 0.06 0.03 0.06 0.23 0.28 0.16 0.07 0.15 0.16 0.18 0.05 0.03 0.23 0.17 0.35 0.38 0.60 0.56 0.59 0.55 0.39 0.40 0.82 0.66 0.31 0.08 0.01 0.00 0.00
0.02 0.05 0.11 0.23 0.12 0.08 0.08 0.13 0.20 0.18 0.11 0.14 0.16 0.16 0.08 0.05 0.22 0.23 0.34 0.39 0.56 0.65 0.55 0.35 0.43 0.46 0.68 0.76 0.49 0.28 0.08 0.00 0.00
0.06 0.04 0.07 0.17 0.20 0.12 0.08 0.06 0.09 0.11 0.12 0.15 0.12 0.16 0.18 0.12 0.22 0.23 0.19 0.27 0.65 0.61 0.58 0.33 0.45 0.43 0.39 0.50 0.53 0.39 0.20 0.01 0.00
0.09 0.07 0.08 0.16 0.29 0.15 0.13 0.13 0.11 0.07 0.11 0.20 0.25 0.16 0.01 0.04 0.12 0.19 0.21 0.28 0.65 0.60 0.56 0.43 0.30 0.41 0.47 0.35 0.35 0.37 0.25 0.07 0.02
0.02 0.01 0.03 0.05 0.20 0.21 0.22 0.17 0.13 0.14 0.09 0.07 0.12 0.14 0.12 0.11 0.08 0.08 0.05 0.34 0.99 0.90 0.60 0.57 0.42 0.35 0.36 0.57 0.43 0.41 0.44 0.14 0.05
0.01 0.00 0.03 0.14 0.20 0.36 0.40 0.29 0.20 0.16 0.17 0.14 0.16 0.13 0.16 0.25 0.27 0.21 0.16 0.31 0.68 0.85 1.08 0.93 0.51 0.43 0.61 0.53 0.86 0.86 0.66 0.50 0.16
0.01 0.04 0.15 0.21 0.27 0.25 0.31 0.42 0.47 0.46 0.48 0.57 0.61 0.59 0.38 0.40 0.48 0.50 0.40 0.27 0.47 0.66 1.13 1.85 1.49 0.81 0.57 0.45 0.58 0.95 0.95 0.64 0.36
0.01 0.06 0.15 0.23 0.25 0.22 0.25 0.24 0.33 0.45 0.53 0.68 0.74 0.83 0.79 0.71 0.71 0.59 0.67 0.51 0.53 0.66 0.64 1.13 2.08 1.90 1.61 1.08 0.87 0.83 0.69 0.65 0.48
0.01 0.01 0.04 0.08 0.18 0.31 0.42 0.51 0.32 0.16 0.30 0.43 0.65 0.76 0.98 0.91 0.82 0.77 0.84 0.76 0.49 0.50 0.62 0.70 1.10 2.06 2.14 1.48 0.90 0.72 0.84 0.77 0.63
0.00 0.00 0.00 0.01 0.02 0.05 0.10 0.20 0.55 0.68 0.59 0.36 0.31 0.47 0.67 0.98 1.13 1.19 1.15 1.02 0.92 0.75 0.69 0.82 0.89 0.90 1.25 1.64 1.62 1.12 0.74 0.81 0.82
0.00 0.00 0.00 0.00 0.00 0.00 0.00 0.01 0.03 0.10 0.28 0.47 0.44 0.38 0.38 0.39 0.60 0.96 1.34 1.59 1.28 0.99 0.95 0.98 1.11 1.12 1.08 1.09 1.12 1.11 0.92 0.65 0.61
0.00 0.00 0.00 0.00 0.00 0.00 0.00 0.00 0.00 0.00 0.01 0.02 0.04 0.09 0.20 0.42 0.53 0.49 0.48 0.57 0.70 0.56 0.44 0.49 0.59 0.63 0.62 0.63 0.68 0.75 0.77 0.68 0.57
0.00 0.00 0.00 0.00 0.00 0.00 0.00 0.00 0.00 0.00 0.00 0.00 0.00 0.01 0.01 0.05 0.15 0.29 0.35 0.48 0.67 0.78 0.72 0.53 0.38 0.38 0.43 0.52 0.58 0.59 0.66 0.76 0.62
0.00 0.00 0.00 0.00 0.00 0.00 0.00 0.00 0.00 0.00 0.00 0.00 0.00 0.00 0.00 0.00 0.02 0.08 0.16 0.16 0.18 0.25 0.39 0.56 0.60 0.54 0.50 0.52 0.52 0.48 0.49 0.58 0.82
0.00 0.00 0.00 0.00 0.00 0.00 0.00 0.00 0.00 0.00 0.00 0.00 0.00 0.00 0.00 0.00 0.02 0.06 0.07 0.07 0.12 0.15 0.16 0.23 0.27 0.33 0.40 0.51 0.55 0.53 0.45 0.53 0.91
0.00 0.00 0.00 0.00 0.00 0.00 0.00 0.00 0.00 0.00 0.00 0.00 0.00 0.01 0.02 0.00 0.04 0.08 0.07 0.09 0.13 0.14 0.18 0.23 0.31 0.39 0.49 0.47 0.38 0.53 0.59 0.58 0.57
0.00 0.00 0.00 0.00 0.00 0.00 0.00 0.00 0.00 0.00 0.00 0.00 0.00 0.00 0.01 0.02 0.01 0.04 0.09 0.12 0.16 0.22 0.25 0.31 0.34 0.38 0.51 0.68 0.69 0.56 0.53 0.63 0.65
0.00 0.00 0.00 0.00 0.00 0.00 0.00 0.00 0.00 0.00 0.00 0.00 0.00 0.00 0.00 0.00 0.01 0.01 0.01 0.00 0.03 0.12 0.21 0.22 0.19 0.27 0.42 0.53 0.71 0.55 0.45 0.53 0.65